Regional Weather Roundup
Issued by NWS

Home | Current Version | Previous Version | Text Only | Print | Product List | Glossary Off
Versions: 1 2 3 4 5 6 7 8 9 10 11 12 13 14 15 16 17 18 19 20 21 22 23 24 25 26 27 28 29 30 31 32 33 34 35 36 37 38 39 40 41 42 43 44 45 46 47 48 49 50

000
ASUS43 KIND 011759
RWRIN

WEATHER ROUNDUP FOR INDIANA
NATIONAL WEATHER SERVICE INDIANAPOLIS IN
200 PM EDT FRI AUG 01 2014

NOTE: "FAIR" INDICATES FEW OR NO CLOUDS BELOW 12,000 FEET WITH NO
SIGNIFICANT WEATHER AND/OR OBSTRUCTIONS TO VISIBILITY.

* - STATION DOES NOT REPORT WEATHER SUCH AS PRECIPITATION OR FOG.

+ - STATION NOT QUALITY CONTROLLED BY THE NATIONAL WEATHER SERVICE.
    USE DATA WITH CAUTION...ESPECIALLY DEWPOINT AND RELATIVE
    HUMIDITY OBSERVATIONS.

INZ001>003-010>013-019-020-011900-
NORTHWEST INDIANA

CITY           SKY/WX    TMP DP  RH WIND       PRES   REMARKS
GARY /AIRPORT/ PTSUNNY   72  59  64 SE13      30.09F
KNOX *+        MOSUNNY   80  60  50 S5        30.09S
MONTICELLO +   SUNNY     78  62  57 CALM      30.10F
RENSSELAER +   SUNNY     79  64  61 S6        30.10F
VALPARAISO     NOT AVBL

$$

LMZ046-743>745-011900-
SOUTHERN LAKE MICHIGAN

STATION/POSITION TIME  TEMP WIND        PRES
                       AIR  DIR/SP/G
                 (UTC) (F)  (DEG/KT/KT) (MB)
MICHIGAN CITY    1700   71   60/  5/  7   N/A

$$

INZ004-005-014>016-021>024-011900-
NORTH CENTRAL INDIANA

CITY           SKY/WX    TMP DP  RH WIND       PRES   REMARKS
GOSHEN         PTSUNNY   82  61  48 S7        30.09F
6HR MIN TEMP:  63; 6HR MAX TEMP:  82;

SOUTH BEND     PTSUNNY   76  57  51 N9        30.10F
6HR MIN TEMP:  64; 6HR MAX TEMP:  80;

WARSAW +       PTSUNNY   79  61  53 W5        30.11F

$$

INZ006>009-017-018-025>027-011900-
NORTHEAST INDIANA

CITY           SKY/WX    TMP DP  RH WIND       PRES   REMARKS
ANGOLA *+      SUNNY     81  63  54 SW6       30.12S
AUBURN +       PTSUNNY   81  57  44 SW3       30.12F
FORT WAYNE     PTSUNNY   79  60  52 SW6       30.12F
6HR MIN TEMP:  62; 6HR MAX TEMP:  80;


$$

INZ028-029-035-036-043>045-051>053-011900-
WEST CENTRAL INDIANA

CITY           SKY/WX    TMP DP  RH WIND       PRES   REMARKS
GREENCASTLE +  MOSUNNY   79  59  50 CALM      30.11F
LAFAYETTE      MOSUNNY   80  61  52 S6        30.09F
6HR MIN TEMP:  59; 6HR MAX TEMP:  81;

TERRE HAUTE    MOSUNNY   81  59  47 CALM      30.10F
6HR MIN TEMP:  61; 6HR MAX TEMP:  81;


$$

INZ030>032-037>040-046>048-054>057-064-065-011900-
CENTRAL INDIANA

CITY           SKY/WX    TMP DP  RH WIND       PRES   REMARKS
COLUMBUS       MOSUNNY   81  59  47 CALM      30.11
INDIANAPOLIS   PTSUNNY   79  59  50 E3        30.10F
6HR MIN TEMP:  65; 6HR MAX TEMP:  79;

-EAGLE CREEK   SUNNY     80  59  48 VRB3      30.10F
6HR MIN TEMP:  63; 6HR MAX TEMP:  80;

KOKOMO *+      PTSUNNY   79  61  53 SE3       30.11F
MT COMFORT *+  MOSUNNY   79  63  57 CALM      30.12S
SHELBYVILLE    MOSUNNY   82  58  43 NE3       30.11S
6HR MIN TEMP:  62; 6HR MAX TEMP:  83;


$$

INZ033-034-041-042-049-050-058-059-011900-
EAST CENTRAL INDIANA

CITY           SKY/WX    TMP DP  RH WIND       PRES   REMARKS
MUNCIE         MOSUNNY   80  60  50 NE5       30.12F
6HR MIN TEMP:  62; 6HR MAX TEMP:  81;


$$

INZ060-061-067>069-081>083-085>088-011900-
SOUTHWEST INDIANA

CITY           SKY/WX    TMP DP  RH WIND       PRES   REMARKS
EVANSVILLE     MOSUNNY   85  57  38 W3        30.09F
6HR MIN TEMP:  64; 6HR MAX TEMP:  85;


$$

INZ062-063-066-070>080-084-089>092-011900-
SOUTH CENTRAL AND SOUTHEAST INDIANA

CITY           SKY/WX    TMP DP  RH WIND       PRES   REMARKS
BLOOMINGTON    PTSUNNY   79  64  60 CALM      30.11F
6HR MIN TEMP:  59; 6HR MAX TEMP:  83;


$$



USA.gov is the U.S. government's official web portal to all federal, state and local government web resources and services.